Location: Lake_James_State_Park
(35.7270°N, 81.9020°W)
Time: 02:12:23
(UTC-04:00)

Daily predictions for brighter satellites

Satellite Brightness Start Highest point End
(mag) Time Altitude Azimuth Time Altitude Azimuth Time Altitude Azimuth
ATLAS 3B R/B 4.4 01:39:39 30° N 01:39:39 30° N 01:43:32 10° NNE
CENTAUR R/B 4.3 03:00:45 24° ENE 03:00:45 24° ENE 03:03:50 10° NE
ATLAS 5 CENTAUR R/B 4.2 03:20:45 20° NE 03:20:45 20° NE 03:22:20 10° NNE
CZ-2D R/B 3.7 03:36:09 10° NNE 03:39:27 31° ENE 03:39:27 31° ENE
Resurs 1-4 Rocket 3.0 03:56:10 10° NNE 04:00:03 46° NE 04:00:03 46° NE
Cosmos 1709 Rocket 4.4 04:05:36 10° N 04:10:20 52° NNW 04:10:20 52° NNW
SL-16 R/B 2.5 04:12:41 80° NNE 04:12:41 80° NNE 04:18:37 10° NNW
USA 234 3.0 04:17:08 10° NE 04:23:43 88° NW 04:24:16 77° SW
COSMOS 2406 3.2 04:27:10 79° N 04:27:10 79° N 04:32:35 10° NNE
Cosmos 1943 Rocket 3.2 04:25:55 10° NNW 04:29:08 35° NNW 04:29:08 35° NNW
Cosmos 1908 Rocket 4.3 04:28:50 10° N 04:32:42 50° ENE 04:32:42 50° ENE
Cosmos 2074 Rocket 4.1 04:29:42 10° N 04:35:56 73° E 04:39:22 28° SSE
CZ-4B R/B 4.4 04:31:18 10° NNE 04:36:08 35° E 04:39:01 21° SSE
IRS-1D 4.3 04:34:44 10° N 04:38:39 40° NW 04:38:39 40° NW
ARIANE 5 R/B 3.5 04:36:18 10° N 04:39:55 35° NW 04:39:55 35° NW
Cosmos 2184 Rocket 4.0 04:38:15 10° N 04:44:40 82° E 04:48:43 24° S
Cosmos 1703 Rocket 3.6 04:48:19 77° E 04:48:19 77° E 04:52:46 10° N
CENTAUR R/B 3.1 04:47:56 39° WNW 04:48:35 40° NW 04:54:57 10° NNE
Cosmos 1933 4.1 04:50:16 44° N 04:50:16 44° N 04:53:11 10° N
Cosmos 2221 Rocket 3.6 04:51:54 74° SE 04:52:06 76° E 04:56:31 10° N
ARGOS Delta rocket 3.5 04:48:05 10° N 04:52:21 84° NNW 04:52:21 84° NNW
Okean O Rocket 1.9 04:49:06 10° NNE 04:53:33 66° E 04:54:18 55° SSE
Cosmos 1656 Rocket 3.6 04:49:07 10° NNW 04:54:33 81° ENE 04:59:58 10° SSE
Atlas Centaur 2 2.6 04:56:55 31° SE 04:56:55 31° SE 05:00:08 10° ESE
Cosmos 1825 3.3 04:55:52 10° N 04:58:10 35° NNW 04:58:10 35° NNW
ATLAS 5 CENTAUR R/B 4.0 05:02:18 14° NW 05:02:40 14° NW 05:05:23 10° N
Cosmos 1190 Rocket 3.9 05:04:39 56° SW 05:05:36 71° WNW 05:10:48 10° NNE
CZ-3 R/B 4.4 04:12:40 10° W 05:07:51 51° SW 05:20:12 10° SE
BREEZE-M DEB (TANK) 4.0 05:06:38 43° WSW 05:08:38 82° NW 05:27:07 10° NE
CZ-4B R/B 3.0 05:06:21 10° NNE 05:10:06 67° ESE 05:11:13 43° SSE
Cosmos 1992 Rocket 3.9 05:04:57 10° NNW 05:10:07 62° WSW 05:13:47 19° S
Okean 1-7 2.9 05:08:55 47° S 05:10:07 85° E 05:14:30 10° N
COSMOS 2487 2.7 05:15:19 57° NW 05:15:19 57° NW 05:18:33 10° N
PSLV R/B 3.7 05:11:58 10° N 05:15:42 60° WNW 05:15:42 60° WNW
Cosmos 2285 Rocket 4.1 05:13:06 10° NNW 05:19:20 54° WSW 05:25:29 10° S
CZ-2D R/B 3.3 05:16:47 10° NNW 05:20:46 23° WNW 05:20:46 23° WNW
Cosmos 1954 Rocket 4.1 05:19:31 21° S 05:23:00 74° ESE 05:28:12 10° NNE
Thor Agena Rocket 3.8 05:21:28 10° SSE 05:26:34 71° ENE 05:31:46 10° N
PAYLOAD B 4.1 05:21:05 10° N 05:26:35 71° WNW 05:30:11 22° SSW
MOZ.5/SAFIR/RUBIN 5/SL-8 3.7 05:25:19 17° S 05:28:47 56° W 05:33:21 10° NNW
USA 32 4.3 05:30:42 30° SW 05:32:47 45° W 05:37:47 10° N
Okean 2 Rocket 3.2 05:36:04 10° NNW 05:40:28 54° W 05:44:53 10° S
Resurs 1-4 Rocket 3.8 05:37:48 10° NNW 05:40:40 15° WNW 05:41:07 15° WNW
Cosmos 676 Rocket 4.2 05:41:13 23° SW 05:44:13 52° WNW 05:49:19 10° N
ADEOS II 2.2 05:43:02 10° NNE 05:48:19 78° ESE 05:53:34 10° S
Meteor 2-10 Rocket 3.7 05:42:49 10° S 05:48:37 83° W 05:54:19 10° N
Cosmos 1782 Rocket 4.3 05:46:58 10° NNW 05:50:47 31° W 05:53:21 17° SW
SeaSat 1 2.5 05:48:33 10° S 05:53:20 53° WSW 05:58:10 10° NW
Meteor PRIRODA 3.9 05:49:49 10° NNE 05:53:36 74° ESE 05:57:21 10° S
SL-16 R/B 4.3 05:57:47 12° W 05:57:47 12° W 05:58:58 10° WNW
GPS 2-05 Rocket1 2.7 05:54:47 23° W 05:56:45 89° N 06:00:05 10° E
Cosmos 2278 4.0 05:52:01 10° NNW 05:57:45 73° ENE 06:03:25 10° SSE
Cosmos 1400 Rocket 4.0 06:01:33 10° N 06:05:18 45° E 06:09:01 10° SSE
Cosmos 1140 Rocket 3.5 06:03:52 10° SSW 06:08:54 59° WNW 06:14:00 10° N
Abrixas rocket 2.1 06:07:48 10° WNW 06:11:07 69° SW 06:14:26 10° SE
Cosmos 2369 3.8 06:07:28 10° NNW 06:13:14 88° ENE 06:18:57 10° SSE
Cosmos 2181 Rocket 4.3 06:07:16 10° SSW 06:13:28 49° W 06:19:38 10° N
CZ-4B R/B 4.2 06:12:16 10° NNW 06:16:29 25° WNW 06:20:42 10° WSW
PSLV R/B 4.2 06:14:09 13° W 06:16:47 30° SSW 06:19:49 10° SSE
CZ-4B R/B 4.2 06:12:59 10° NNE 06:17:30 86° E 06:21:51 10° SSW
Cosmos 1295 Rocket 4.5 06:11:47 10° NNW 06:17:49 62° W 06:23:53 10° S
Feng Yun 1-1 Rocket 4.3 06:12:51 10° N 06:18:08 59° WNW 06:23:30 10° SSW
Cosmos 614 Rocket 3.9 06:16:04 10° SSW 06:21:09 70° WNW 06:26:13 10° NNE
ADEOS Rocket 3.8 06:15:35 10° N 06:23:05 53° WNW 06:30:23 10° SW
Geosat 4.2 06:19:20 10° NNE 06:24:13 53° WNW 06:29:06 10° SW
Cosmos 1606 2.7 06:20:57 10° S 06:24:51 75° W 06:28:46 10° N
BREEZE M DEB (TANK) 2.8 06:24:46 10° SSW 06:27:04 49° SE 06:32:08 10° ENE
COBE Rocket 4.1 06:23:09 10° NNE 06:28:19 86° E 06:33:20 10° S
Okean O Rocket 3.7 06:28:36 10° NW 06:29:18 10° WNW 06:30:02 10° WNW
Cosmos 1741 Rocket 4.2 06:25:57 10° SSW 06:31:03 54° WNW 06:36:10 10° N
Cosmos 2082 Rocket 2.3 06:25:25 10° SSW 06:31:05 64° WNW 06:36:45 10° NNE
Ariane Rocket 3.5 06:27:33 10° NNE 06:32:37 67° ESE 06:37:39 10° S
Meteor 1-27 Rocket 3.7 06:29:51 10° S 06:35:25 84° W 06:40:58 10° N
Cosmos 1833 Rocket 2.7 06:32:21 10° SSW 06:37:55 70° WNW 06:43:32 10° NNE
